Location: Unspecified
(0.0000°N, 0.0000°E)
Time: 19:53:33
(UTC+00:00)

ISS - Pass Details

Date: 20 June 2019
Orbit: 407 x 419 km, 51.6° (Epoch: 26 June)

Event Time Altitude Azimuth Distance (km) Brightness Sun altitude
Exits shadow 04:40:41 20° 168° (SSE) 1,027 -1.9 -18.5°
Maximum altitude 04:42:10 28° 126° (SE) 809 -2.1 -18.1°
Drops below altitude 10° 04:45:02 10° 65° (ENE) 1,464 0.3 -17.5°
Sets 04:47:17 0° 53° (NE) 2,320 1.6 -17.0°
